• In Austria
  • List of Countries
  • For 7 days
  • Water Temperature
  • Satellite Maps
  • Weather Map
  • News
  • Weather Widgets
  • user-avatar
    Login

    Hourly Weather Kerns

    Today, 14 December, Thursday

    Time Temperature Precipitation Wind Pressure Humidity
    00:00 +24°C° 0 mm 3 mps 757 mmHg 90%
    01:00 +22°C° 0 mm 3 mps 757 mmHg 91%
    02:00 +22°C° 0 mm 3 mps 757 mmHg 92%
    03:00 +22°C° 0 mm 3 mps 757 mmHg 92%
    04:00 +22°C° 0 mm 3 mps 756 mmHg 92%
    05:00 +24°C° 0 mm 3 mps 756 mmHg 87%
    06:00 +25°C° 0 mm 4 mps 757 mmHg 83%
    07:00 +26°C° 0 mm 4 mps 757 mmHg 79%
    08:00 +28°C° 0 mm 4 mps 757 mmHg 68%
    09:00 +32°C° 0 mm 4 mps 757 mmHg 56%
    10:00 +34°C° 0 mm 4 mps 757 mmHg 45%
    11:00 +35°C° 0 mm 4 mps 756 mmHg 42%
    12:00 +36°C° 0 mm 4 mps 756 mmHg 39%
    13:00 +37°C° 0 mm 4 mps 755 mmHg 35%
    14:00 +37°C° 0 mm 4 mps 755 mmHg 39%
    15:00 +36°C° 0 mm 5 mps 755 mmHg 42%
    16:00 +35°C° 0 mm 5 mps 754 mmHg 48%
    17:00 +33°C° 0 mm 5 mps 755 mmHg 56%
    18:00 +30°C° 0 mm 4 mps 755 mmHg 65%
    19:00 +28°C° 0 mm 4 mps 755 mmHg 74%
    20:00 +27°C° 0 mm 4 mps 756 mmHg 80%
    21:00 +26°C° 0 mm 3 mps 756 mmHg 85%
    22:00 +25°C° 0 mm 3 mps 756 mmHg 91%
    23:00 +25°C° 0 mm 3 mps 756 mmHg 92%

    Tomorrow, 15 December, Friday

    Time Temperature Precipitation Wind Pressure Humidity
    00:00 +24°C° 0 mm 3 mps 756 mmHg 93%
    01:00 +24°C° 0 mm 3 mps 756 mmHg 94%
    02:00 +24°C° 0 mm 3 mps 756 mmHg 95%
    03:00 +24°C° 0 mm 3 mps 756 mmHg 95%
    04:00 +24°C° 0 mm 3 mps 756 mmHg 96%
    05:00 +25°C° 0 mm 2 mps 756 mmHg 93%
    06:00 +25°C° 0 mm 2 mps 756 mmHg 91%
    07:00 +26°C° 0 mm 2 mps 757 mmHg 89%
    08:00 +28°C° 0.1 mm 2 mps 757 mmHg 77%
    09:00 +31°C° 0.1 mm 2 mps 757 mmHg 66%
    10:00 +34°C° 0.1 mm 3 mps 757 mmHg 55%
    11:00 +35°C° 0 mm 3 mps 756 mmHg 52%
    12:00 +35°C° 0 mm 3 mps 756 mmHg 49%
    13:00 +36°C° 0 mm 4 mps 755 mmHg 46%
    14:00 +35°C° 0 mm 4 mps 755 mmHg 47%
    15:00 +35°C° 0 mm 4 mps 754 mmHg 49%
    16:00 +35°C° 0 mm 4 mps 754 mmHg 51%
    17:00 +33°C° 0 mm 4 mps 754 mmHg 58%
    18:00 +30°C° 0 mm 4 mps 754 mmHg 66%
    19:00 +28°C° 0 mm 4 mps 755 mmHg 74%
    20:00 +27°C° 0 mm 3 mps 755 mmHg 79%
    21:00 +26°C° 0 mm 3 mps 756 mmHg 85%
    22:00 +25°C° 0 mm 3 mps 757 mmHg 90%
    23:00 +25°C° 0 mm 3 mps 757 mmHg 91%

    Day after tomorrow, 16 December, Saturday

    Time Temperature Precipitation Wind Pressure Humidity
    00:00 +25°C° 0 mm 3 mps 756 mmHg 92%
    01:00 +24°C° 0 mm 3 mps 756 mmHg 92%
    02:00 +25°C° 0 mm 2 mps 756 mmHg 93%
    03:00 +25°C° 0 mm 2 mps 756 mmHg 93%
    04:00 +25°C° 0 mm 2 mps 756 mmHg 94%
    05:00 +26°C° 0 mm 2 mps 757 mmHg 91%
    06:00 +26°C° 0 mm 2 mps 757 mmHg 88%
    07:00 +27°C° 0 mm 2 mps 757 mmHg 85%
    08:00 +29°C° 0 mm 2 mps 757 mmHg 75%
    09:00 +31°C° 0 mm 3 mps 758 mmHg 66%
    10:00 +34°C° 0 mm 3 mps 758 mmHg 56%
    11:00 +35°C° 0 mm 3 mps 757 mmHg 51%
    12:00 +36°C° 0 mm 4 mps 756 mmHg 46%
    13:00 +38°C° 0 mm 4 mps 756 mmHg 41%
    14:00 +37°C° 0 mm 4 mps 755 mmHg 43%
    15:00 +36°C° 0 mm 4 mps 755 mmHg 44%
    16:00 +36°C° 0 mm 5 mps 755 mmHg 45%
    17:00 +34°C° 0 mm 4 mps 755 mmHg 55%
    18:00 +32°C° 0 mm 4 mps 755 mmHg 65%
    19:00 +28°C° 0 mm 4 mps 756 mmHg 75%
    20:00 +27°C° 0 mm 4 mps 756 mmHg 81%
    21:00 +26°C° 0 mm 4 mps 757 mmHg 87%
    22:00 +26°C° 0 mm 4 mps 757 mmHg 94%
    23:00 +25°C° 0 mm 3 mps 757 mmHg 94%

    17 December, Sunday

    Time Temperature Precipitation Wind Pressure Humidity
    00:00 +25°C° 0 mm 3 mps 757 mmHg 95%
    01:00 +25°C° 0 mm 3 mps 756 mmHg 95%
    02:00 +25°C° 0 mm 3 mps 756 mmHg 96%
    03:00 +25°C° 0 mm 3 mps 756 mmHg 96%
    04:00 +26°C° 0 mm 4 mps 756 mmHg 96%
    05:00 +26°C° 0 mm 4 mps 756 mmHg 92%
    06:00 +27°C° 0 mm 4 mps 757 mmHg 89%
    07:00 +27°C° 0 mm 4 mps 757 mmHg 85%
    08:00 +29°C° 0 mm 4 mps 757 mmHg 75%
    09:00 +33°C° 0 mm 4 mps 757 mmHg 64%
    10:00 +35°C° 0 mm 4 mps 757 mmHg 54%
    11:00 +36°C° 0 mm 5 mps 757 mmHg 50%
    12:00 +36°C° 0 mm 5 mps 756 mmHg 47%
    13:00 +38°C° 0 mm 6 mps 756 mmHg 43%
    14:00 +38°C° 0 mm 6 mps 755 mmHg 44%
    15:00 +36°C° 0 mm 6 mps 755 mmHg 46%
    16:00 +36°C° 0 mm 6 mps 754 mmHg 47%
    17:00 +33°C° 0 mm 6 mps 755 mmHg 53%
    18:00 +30°C° 0 mm 5 mps 755 mmHg 58%
    19:00 +28°C° 0 mm 5 mps 756 mmHg 64%
    20:00 +27°C° 0 mm 5 mps 756 mmHg 71%
    21:00 +26°C° 0 mm 4 mps 756 mmHg 79%
    22:00 +26°C° 0 mm 4 mps 757 mmHg 86%
    23:00 +26°C° 0 mm 4 mps 756 mmHg 89%

    18 December, Monday

    Time Temperature Precipitation Wind Pressure Humidity
    00:00 +26°C° 0 mm 4 mps 756 mmHg 91%
    01:00 +26°C° 0 mm 4 mps 756 mmHg 94%
    02:00 +25°C° 0.1 mm 4 mps 755 mmHg 95%
    03:00 +25°C° 0.1 mm 4 mps 755 mmHg 95%
    04:00 +25°C° 0.1 mm 4 mps 755 mmHg 96%
    05:00 +25°C° 0.1 mm 4 mps 756 mmHg 92%
    06:00 +26°C° 0.1 mm 4 mps 756 mmHg 89%
    07:00 +27°C° 0.1 mm 4 mps 757 mmHg 85%
    08:00 +29°C° 0.1 mm 5 mps 756 mmHg 76%
    09:00 +32°C° 0.1 mm 5 mps 756 mmHg 68%
    10:00 +34°C° 0.1 mm 5 mps 756 mmHg 60%
    11:00 +34°C° 0.1 mm 5 mps 756 mmHg 57%
    12:00 +35°C° 0.1 mm 5 mps 755 mmHg 55%
    13:00 +36°C° 0.1 mm 5 mps 755 mmHg 53%
    14:00 +35°C° 0.1 mm 5 mps 755 mmHg 54%
    15:00 +35°C° 0.1 mm 5 mps 754 mmHg 55%
    16:00 +35°C° 0.1 mm 5 mps 754 mmHg 56%
    17:00 +33°C° 0.1 mm 5 mps 755 mmHg 64%
    18:00 +30°C° 0.1 mm 4 mps 755 mmHg 72%
    19:00 +29°C° 0.1 mm 4 mps 756 mmHg 79%
    20:00 +28°C° 0.4 mm 4 mps 756 mmHg 84%
    21:00 +27°C° 0.4 mm 4 mps 756 mmHg 89%
    22:00 +26°C° 0.4 mm 4 mps 757 mmHg 93%
    23:00 +26°C° 0.4 mm 4 mps 756 mmHg 94%

    19 December, Tuesday

    Time Temperature Precipitation Wind Pressure Humidity
    00:00 +26°C° 0.4 mm 4 mps 756 mmHg 94%
    01:00 +26°C° 0.4 mm 3 mps 756 mmHg 94%
    02:00 +26°C° 0.1 mm 3 mps 755 mmHg 95%
    03:00 +26°C° 0.1 mm 3 mps 755 mmHg 96%
    04:00 +25°C° 0.1 mm 3 mps 755 mmHg 96%
    05:00 +26°C° 0.1 mm 3 mps 756 mmHg 93%
    06:00 +27°C° 0.1 mm 3 mps 756 mmHg 90%
    07:00 +27°C° 0.1 mm 3 mps 757 mmHg 86%
    08:00 +29°C° 0.1 mm 4 mps 757 mmHg 76%
    09:00 +33°C° 0.1 mm 4 mps 756 mmHg 66%
    10:00 +35°C° 0.1 mm 4 mps 756 mmHg 55%
    11:00 +35°C° 0.1 mm 4 mps 756 mmHg 54%
    12:00 +36°C° 0.1 mm 4 mps 755 mmHg 52%
    13:00 +36°C° 0.1 mm 5 mps 754 mmHg 51%
    14:00 +36°C° 0.2 mm 5 mps 754 mmHg 53%
    15:00 +35°C° 0.2 mm 5 mps 754 mmHg 55%
    16:00 +35°C° 0.2 mm 5 mps 753 mmHg 57%
    17:00 +33°C° 0 mm 5 mps 754 mmHg 65%
    18:00 +32°C° 0 mm 5 mps 754 mmHg 73%
    19:00 +29°C° 0 mm 4 mps 755 mmHg 81%
    20:00 +28°C° 0 mm 4 mps 755 mmHg 85%
    21:00 +28°C° 0 mm 4 mps 756 mmHg 90%
    22:00 +27°C° 0 mm 4 mps 756 mmHg 94%
    23:00 +27°C° 0 mm 3 mps 756 mmHg 94%
    Show more